Tracking 31027 objects as of 19-Jul-2025
HD Live streaming from Space Station
objects crossing your sky now

OPS 7684 DEB

Track OPS 7684 DEB now!
10-day predictions


NORAD ID: 3618
Int'l Code: 1968-112D
Perigee: 1,382.3 km
Apogee: 1,511.9 km
Inclination: 80.5 °
Period: 114.7 minutes
Semi major axis: 7818 km
RCS: 0.0651 m2 (small)
Launch date: December 12, 1968
Source: United States (US)
Launch site: AIR FORCE WESTERN TEST RANGE (AFWTR)

Note: This is SATELLITE DEBRIS
Your satellite tracking list
XMM
Track 1 satellite(s)




NASA's NSSDC Master Catalog

Two Line Element Set (TLE):
1 03618U 68112D   25197.22206374  .00000071  00000-0  38398-3 0  9998
2 03618  80.5368 109.7740 0082889 189.2657 324.1578 12.55879180592889
Source of the keplerian elements: AFSPC